Location: 22
(39.7117°N, 89.5929°W)
Time: 13:30:15
(UTC-05:00)

Vanguard 3 - Pass Details

Date: 18 September 2024
Orbit: 507 x 3223 km, 33.3° (Epoch: 11 October)

Event Time Altitude Azimuth Distance (km) Brightness Sun altitude
Exits shadow 05:19:20 - 213° (SSW) 5,654 11.0 -16.6°
Reaches altitude 10° 05:21:41 10° 209° (SSW) 5,239 10.8 -16.2°
Maximum altitude 05:36:48 42° 145° (SE) 3,985 10.8 -13.4°
Drops below altitude 10° 05:54:10 10° 84° (E) 6,012 13.2 -10.1°
Sets 05:58:54 0° 78° (ENE) 6,852 14.3 -9.2°
